TimePDT,TemperatureF,Dew PointF,Humidity,Sea Level PressureIn,VisibilityMPH,Wind Direction,Wind SpeedMPH,Gust SpeedMPH,PrecipitationIn,Events,Conditions,WindDirDegrees,DateUTC
12:56 AM,71.1,34.0,26,29.96,10.0,WSW,19.6,-,N/A,,Clear,250,2013-03-28 07:56:00
1:56 AM,69.1,37.0,31,29.96,10.0,WSW,12.7,-,N/A,,Clear,250,2013-03-28 08:56:00
2:56 AM,64.9,37.0,36,29.94,10.0,WSW,11.5,-,N/A,,Clear,250,2013-03-28 09:56:00
3:56 AM,66.0,37.9,36,29.94,10.0,West,10.4,-,N/A,,Clear,260,2013-03-28 10:56:00
4:56 AM,64.0,37.9,38,29.95,10.0,WNW,10.4,-,N/A,,Clear,300,2013-03-28 11:56:00
5:56 AM,63.0,37.9,40,29.96,10.0,WNW,5.8,-,N/A,,Clear,290,2013-03-28 12:56:00
6:56 AM,59.0,36.0,42,29.98,10.0,NW,3.5,-,N/A,,Scattered Clouds,320,2013-03-28 13:56:00
7:56 AM,66.0,39.9,38,30.00,10.0,South,3.5,-,N/A,,Scattered Clouds,180,2013-03-28 14:56:00
8:56 AM,69.1,37.0,31,30.02,10.0,WSW,4.6,-,N/A,,Scattered Clouds,250,2013-03-28 15:56:00
9:56 AM,73.9,43.0,33,30.04,10.0,ESE,3.5,-,N/A,,Scattered Clouds,120,2013-03-28 16:56:00
10:56 AM,78.1,44.1,30,30.04,10.0,ESE,8.1,-,N/A,,Mostly Cloudy,120,2013-03-28 17:56:00
11:56 AM,80.1,41.0,25,30.03,10.0,SE,6.9,-,N/A,,Clear,140,2013-03-28 18:56:00
12:56 PM,82.0,30.9,16,30.01,10.0,East,5.8,-,N/A,,Scattered Clouds,100,2013-03-28 19:56:00
1:56 PM,82.9,34.0,17,29.98,10.0,Variable,4.6,-,N/A,,Scattered Clouds,0,2013-03-28 20:56:00
2:56 PM,86.0,37.0,18,29.96,10.0,Variable,4.6,-,N/A,,Clear,0,2013-03-28 21:56:00
3:56 PM,86.0,37.0,18,29.94,10.0,ESE,4.6,-,N/A,,Scattered Clouds,110,2013-03-28 22:56:00
4:56 PM,86.0,36.0,17,29.94,10.0,SE,3.5,-,N/A,,Mostly Cloudy,130,2013-03-28 23:56:00
5:56 PM,84.0,41.0,22,29.94,10.0,SE,5.8,-,N/A,,Mostly Cloudy,130,2013-03-29 00:56:00
6:56 PM,78.1,44.1,30,29.94,10.0,ESE,5.8,-,N/A,,Mostly Cloudy,120,2013-03-29 01:56:00
7:56 PM,77.0,42.1,29,29.95,10.0,SE,6.9,-,N/A,,Mostly Cloudy,130,2013-03-29 02:56:00
8:56 PM,73.9,44.1,34,29.97,10.0,SSE,8.1,-,N/A,,Scattered Clouds,160,2013-03-29 03:56:00
9:56 PM,71.1,43.0,36,29.99,10.0,South,5.8,-,N/A,,Partly Cloudy,180,2013-03-29 04:56:00
10:56 PM,72.0,43.0,35,29.99,10.0,South,3.5,-,N/A,,Clear,170,2013-03-29 05:56:00
11:56 PM,66.9,39.9,37,30.00,10.0,West,8.1,-,N/A,,Clear,280,2013-03-29 06:56:00